Location: Central Falls
(41.8900°N, 71.3929°W)
Time: 03:19:08
(UTC+00:00)

Vanguard 2 - Pass Details

Date: 09 December 2023
Orbit: 554 x 2918 km, 32.9° (Epoch: 01 March)

Event Time Altitude Azimuth Distance (km) Brightness Sun altitude
Rises 20:27:34 0° 171° (S) 5,959 12.5 6.3°
Reaches altitude 10° 20:37:38 10° 137° (SE) 5,505 11.8 4.8°
Maximum altitude 20:40:01 10° 129° (SE) 5,553 11.8 4.5°
Drops below altitude 10° 20:42:20 10° 121° (ESE) 5,653 11.7 4.1°
Sets 20:53:40 0° 89° (E) 6,744 11.8 2.4°
